Regional Weather Roundup
Issued by NWS Portland, ME

Current Version | Previous Version | Text Only | Print | Product List | Glossary Off
Versions: 1 2 3 4 5 6 7 8 9 10 11 12 13 14 15 16 17 18 19 20 21 22 23 24 25 26 27 28 29 30 31 32 33 34 35 36 37 38 39 40 41 42 43 44 45 46 47 48 49 50
000 ASUS41 KGYX 190805 RWRGYX WEATHER ROUNDUP FOR MAINE AND NEW HAMPSHIRE NATIONAL WEATHER SERVICE GRAY ME 400 AM EDT TUE MAR 19 2019 MEZ002-005-006-010-012-015-018-020-021-024-026-027-029-190900- MAINE CITY SKY/WX TMP DP RH WIND PRES REMARKS PORTLAND FAIR 21 13 71 CALM 30.30F SANFORD MOCLDY 17 14 88 CALM 30.29S BAR HARBOR FAIR 18 8 65 CALM 30.29S WISCASSET FAIR 16 11 80 CALM 30.31F ROCKLAND FAIR 21 7 54 NW3 30.29F FRYEBURG FAIR 11 6 81 CALM 30.28S LEWISTONAUBURN FAIR 14 10 84 CALM 30.29S AUGUSTA FAIR 22 2 42 NW5 30.28F WATERVILLE FAIR 19 5 54 W5 30.25F BANGOR FAIR 17 5 59 SW5 30.28S GREENVILLE N/A 10 -2 58 CALM 30.15S MILLINOCKET FAIR 8 3 80 CALM 30.25S HOULTON FAIR 3 -1 83 CALM 30.21S PRESQUE ISLE MOCLDY 16 9 74 CALM 30.22S FRENCHVILLE FAIR 11 2 67 W7 30.16S CARIBOU MOCLDY 11 4 73 CALM 30.20S $$ NHZ002-005-008-009-011-012-014-190900- NEW HAMPSHIRE CITY SKY/WX TMP DP RH WIND PRES REMARKS PORTSMOUTH PTCLDY 24 17 75 CALM 30.28S ROCHESTER FAIR 23 13 65 CALM 30.28S NASHUA MOCLDY 23 18 81 CALM 30.30S MANCHESTER FAIR 25 14 63 CALM 30.28F CONCORD FAIR 20 16 84 CALM 30.29S LACONIA FAIR 19 13 77 CALM 30.28S PLYMOUTH CLOUDY 17 13 85 CALM 30.29S BERLIN FAIR 3 -1 83 CALM 30.24S WHITEFIELD MOCLDY 12 6 77 CALM 30.25S JAFFREY MOCLDY 22 17 81 S5 30.26S KEENE FLURRIES 22 20 92 CALM 30.29F LEBANON CLOUDY 27 13 55 N3 30.28S MT WASHINGTON SNOWSHWR 0 0 100 W46G52 N/A VSB 3/16WCI -31 $$ VTZ005-007-008-190900- VERMONT CITY SKY/WX TMP DP RH WIND PRES REMARKS ST JOHNSBURY N/A 13 8 81 MISG 30.27S MONTPELIER CLOUDY 19 12 74 S5 30.28F BURLINGTON MOCLDY 24 14 65 CALM 30.31S $$ MAZ007-012-024-CTZ003-RIZ002-NYZ038-NYZ072-190900- SOUTHERN NEW ENGLAND AND NY CITY SKY/WX TMP DP RH WIND PRES REMARKS BOSTON FAIR 35 12 38 W7 30.31S WORCESTER FAIR 25 14 63 W9 30.26F NANTUCKET FAIR 27 20 75 W5 30.32S PROVIDENCE FAIR 28 15 58 W8 30.32F HARTFORD FAIR 29 18 63 SW5 30.33F ALBANY FAIR 29 19 66 W6 30.34S NEW YORK CITY FAIR 37 20 50 N8 30.36S $$ ANZ081-ANZ082-ANZ150-NHZ014-MEZ023>029-190900- COASTAL MARINE OBSERVATIONS STATION/POSITION TIME TEMP WIND PRES WAVE AIR SEA DIR/SP/G HT/PER (UTC) (F) (DEG/KT/KT) (MB) (FT/S) MOUNT DESERT ROC 0800 29 330/ 12/ 14 1025.5R MATINICUS ROCK 0700 30 310/ 13/ 14 1025.3S ISLE OF SHOALS 0700 33 300/ 6/ 7 1025.5F CASHES LEDGE BUO 0750 32 39 1026.0F 2/ 3 $$ .............KEY.............. WCI - WIND CHILL TC - TEMPERATURE IN CELSIUS VSB - VISIBILITY IN MILES HX - HEAT INDEX FAIR- INDICATES FEW OR NO CLOUDS BELOW 12,000 FT, WITH NO SIGNIFICANT WEATHER AND/OR OBSTRUCTIONS TO VISIBILITY.

USA.gov is the U.S. government's official web portal to all federal, state and local government web resources and services.